Location: Newark
(21.1200°N, 73.4000°E)
Time: 21:01:45
(UTC+00:00)

Vanguard 1 Rocket - Pass Details

Date: 28 January 2020
Orbit: 650 x 4226 km, 34.3° (Epoch: 26 February)

Event Time Altitude Azimuth Distance (km) Brightness Sun altitude
Rises 13:59:01 0° 274° (W) 7,939 13.7 -15.4°
Reaches altitude 10° 14:07:30 10° 258° (WSW) 7,279 13.3 -17.3°
Maximum altitude 14:21:55 18° 224° (SW) 6,687 12.4 -20.6°
Drops below altitude 10° 14:35:55 10° 188° (S) 6,862 12.1 -23.8°
Sets 14:43:53 0° 170° (S) 7,315 12.0 -25.6°
